Location: Bartshausen
(51.8454°N, 9.8167°E)
Time: 07:07:52
(UTC+00:00)

ARGOS - Pass Details

Date: 08 November 2025
Orbit: 819 x 832 km, 98.5° (Epoch: 11 December)

Event Time Altitude Azimuth Distance (km) Brightness Sun altitude
Rises 04:06:18 0° 12° (NNE) 3,390 6.5 -21.9°
Reaches altitude 10° 04:08:43 10° 8° (N) 2,453 5.7 -21.6°
Maximum altitude 04:13:59 54° 293° (WNW) 1,013 3.2 -20.8°
Enters shadow 04:16:17 32° 233° (SW) 1,407 3.9 -20.4°
